Regional Weather Roundup
Issued by NWS

Home | Current Version | Previous Version | Graphics & Text | Print | Product List | Glossary On
Versions: 1 2 3 4 5 6 7 8 9 10 11 12 13 14 15 16 17 18 19 20 21 22 23 24 25 26 27
000
ASUS45 KBOI 261710
RWRID

IDAHO REGIONAL WEATHER ROUNDUP
NATIONAL WEATHER SERVICE BOISE ID
1100 AM MDT THU APR 26 2018

NOTE: "FAIR" INDICATES FEW OR NO CLOUDS BELOW 12000 FEET
WITH NO SIGNIFICANT WEATHER AND/OR OBSTRUCTIONS TO VISIBILITY

IDZ012-014-261800-
SOUTHWEST IDAHO


CITY           SKY/WX    TMP DP  RH WIND       PRES   REMARKS
BOISE          SUNNY     65  37  35 S10       30.17S
CALDWELL       SUNNY     66  35  31 SE12      30.17S
$$

IDZ016-017-261800-
SOUTHCENTRAL IDAHO


CITY           SKY/WX    TMP DP  RH WIND       PRES   REMARKS
BURLEY         SUNNY     60  36  40 NE13      30.21F
JEROME         SUNNY     66  34  30 NE15      30.21F
TWIN FALLS     SUNNY     62  37  39 NE13      30.21F
$$

IDZ019>023-261800-
SOUTHEAST IDAHO


CITY           SKY/WX    TMP DP  RH WIND       PRES   REMARKS
IDAHO FALLS    SUNNY     58  27  30 NE9       30.27S
POCATELLO      SUNNY     62  34  35 N10       30.25S
REXBURG        SUNNY     58  19  22 NE12      30.26S
$$

IDZ006-010-011-018-031-032-261800-
CENTRAL IDAHO MOUNTAINS


CITY           SKY/WX    TMP DP  RH WIND       PRES   REMARKS
MCCALL         SUNNY     55  32  41 CALM      30.22R
HAILEY         SUNNY     57  28  33 E6        30.27S
STANLEY          N/A     48  28  46 N5        30.30F
SALMON         SUNNY     53  29  39 CALM      30.28F
CHALLIS        SUNNY     56  25  30 CALM      30.27F
$$

IDZ002-004-006-007-026-261800-
NORTHERN IDAHO


CITY           SKY/WX    TMP DP  RH WIND       PRES   REMARKS
LEWISTON       SUNNY     61  43  51 E7        30.15F
LOWELL           N/A     58  38  47 N3        30.20F
COEUR D`ALENE  SUNNY     59  34  39 NE13      30.18F
MULLAN PASS    SUNNY     53  25  33 VRB3      30.25S
$$




USA.gov is the U.S. government's official web portal to all federal, state and local government web resources and services.